sat.trackr.live / text

‹ back to catalog

STARLINK-3044

NORAD 49438 · 2021-104AG

PAYLOAD ACTIVE UNKNOWN

§ Identity

Operator
Country
US
Launch date
2021-11-13
Launch site
AFETR
Launch vehicle
Mass (kg)
RCS (m²)

Purposes: comms

External: N2YO · Heavens-Above · Gunter

§ Orbital elements

Epoch: 2026-05-24T22:15:44.459424Z

Period
95.44 min
Inclination
53.2128°
Eccentricity
0.0001296
Mean motion
15.08837187 rev/d
Perigee alt
538.9 km
Apogee alt
540.6 km
Semi-major
6,917.9 km
B*
2.1082e-5
RAAN
226.8116°
Arg perigee
87.3186°
Mean anomaly
272.7954°
Rev number
25,042

§ Raw data

STARLINK-30441 49438U 21104AG  26144.92759791  .00000048  00000+0  21082-4 0  99902 49438  53.2128 226.8116 0001296  87.3186 272.7954 15.08837187250425

JSON: /api/v1/satellites/49438 · /tle

For live sub-satellite position, see the globe view (requires WebGL).

§ Visibility from observer

Set your observer location to see the next 7 days of passes ≥ 10°. The values pass through the URL so the page stays shareable.

No JS? Fill the form by hand. The geolocation button needs JavaScript.